This is the latest recevied weather packets stored in our database for station/object K4DNM. If no packets are shown the sender has not sent any weather packets the latest 10 day(s).
| Time | Temp. | Humidity | Pressure | Rain* | Wind** | Luminosity | Snow |
|---|---|---|---|---|---|---|---|
| 1778136861 | 18.89° C | 98% | 1010.3 hPa | 0 mm | - | 0 W/m² | - |
| 1778136561 | 18.89° C | 98% | 1010.3 hPa | 0 mm | - | 0 W/m² | - |
| 1778136263 | 18.89° C | 98% | 1010.4 hPa | 0 mm | - | 0 W/m² | - |
| 1778135961 | 18.89° C | 98% | 1010.5 hPa | 0 mm | - | 0 W/m² | - |
| 1778135661 | 18.89° C | 98% | 1010.5 hPa | 0.25 mm | - | 0 W/m² | - |
| 1778135421 | 18.89° C | 98% | 1010.7 hPa | 0.51 mm | - | 0 W/m² | - |
| 1778135060 | 18.89° C | 98% | 1011.1 hPa | 1.27 mm | - | 0 W/m² | - |
| 1778134760 | 18.89° C | 98% | 1011.1 hPa | 2.29 mm | - | 0 W/m² | - |
| 1778134459 | 18.89° C | 98% | 1010.8 hPa | 3.81 mm | - | 0 W/m² | - |
| 1778134221 | 19.44° C | 98% | 1010.6 hPa | 5.08 mm | - | 0 W/m² | - |
| 1778133859 | 19.44° C | 98% | 1010.4 hPa | 6.6 mm | - | 0 W/m² | - |
| 1778133555 | 19.44° C | 97% | 1010.5 hPa | 7.11 mm | - | 0 W/m² | - |
| 1778133316 | 19.44° C | 97% | 1010.6 hPa | 7.62 mm | - | 0 W/m² | - |
| 1778132957 | 19.44° C | 97% | 1010.5 hPa | 7.87 mm | - | 0 W/m² | - |
| 1778132656 | 19.44° C | 97% | 1010.3 hPa | 8.13 mm | - | 0 W/m² | - |
| 1778132357 | 19.44° C | 97% | 1010.3 hPa | 7.87 mm | - | 0 W/m² | - |
| 1778132055 | 19.44° C | 96% | 1010 hPa | 7.87 mm | - | 0 W/m² | - |
| 1778131754 | 19.44° C | 96% | 1011.6 hPa | 7.37 mm | - | 0 W/m² | - |
| 1778131453 | 19.44° C | 95% | 1012.2 hPa | 6.86 mm | - | 0 W/m² | - |
| 1778131213 | 19.44° C | 94% | 1012.2 hPa | 5.84 mm | - | 0 W/m² | - |
| 1778130853 | 19.44° C | 94% | 1012.2 hPa | 4.32 mm | - | 0 W/m² | - |
| 1778130614 | 19.44° C | 93% | 1012.3 hPa | 3.3 mm | - | 0 W/m² | - |
| 1778130252 | 20° C | 91% | 1012.5 hPa | 1.78 mm | - | 0 W/m² | - |
| 1778129950 | 20° C | 89% | 1012.2 hPa | 1.27 mm | - | 0 W/m² | - |
| 1778129651 | 20.56° C | 87% | 1012.1 hPa | 0.76 mm | - | 0 W/m² | - |
* Rain latest hour (hover to see other rain measurements)
** Current wind speed in m/s (hover to see current wind gust speed)